Weather History for Winslow, AZ

Change the Weather History Date:

Saturday, April 13, 2013

  Actual Average Record
Temperature  
Mean Temperature 58 °F 53 °F  
Max Temperature 78 °F 71 °F 86 °F (1963)
Min Temperature 37 °F 36 °F 18 °F (1997)
Degree Days  
Heating Degree Days 7 12  
Month to date heating degree days 123 173  
Since 1 July heating degree days 3974 4226  
Cooling Degree Days 0 0  
Month to date cooling degree days 0 0  
Year to date cooling degree days 0 0  
Growing Degree Days 8 (Base 50)    
Moisture  
Dew Point 22 °F    
Average Humidity 35    
Maximum Humidity 59    
Minimum Humidity 11    
Precipitation  
Precipitation 0.00 in 0.01 in 0.26 in (1944)
Month to date precipitation 0.30 0.15  
Year to date precipitation 1.78 1.67  
Sea Level Pressure  
Sea Level Pressure 29.73 in    
Wind  
Wind Speed 13 mph (SSW)    
Max Wind Speed 31 mph    
Max Gust Speed 39 mph    
Visibility 10 miles    
Events      
T = Trace of Precipitation, MM = Missing Value Source: NWS Daily Summary

Daily Weather History Graph

Daily Weather History Graph

Search for Another Location

Airport:

Trip Planner

Search our weather history database for the weather conditions in past years. The results will help you decide how hot, cold, wet, or windy it might be!

Date:

Astronomy

Apr. 13, 2013 Rise Set
Actual Time 5:53 AM MST 6:54 PM MST
Civil Twilight 5:27 AM MST 7:20 PM MST
Nautical Twilight 4:56 AM MST 7:51 PM MST
Astronomical Twilight 4:24 AM MST 8:22 PM MST
Moon 7:53 AM MST (4/13) 10:14 PM MST (4/13)
Length of Visible Light 13h 53m
Length of Day
13h 01m
Waxing Crescent, 11% of the Moon is Illuminated
Apr 13
Waxing Crescent
Apr 18
First Quarter
Apr 25
Full
May 2
Last Quarter
May 9
New

Hourly Weather History & Observations

Time (MST) Temp. Windchill Dew Point Humidity Pressure Visibility Wind Dir Wind Speed Gust Speed Precip Events Conditions
12:56 AM 48.0 °F - 28.0 °F 46% 29.82 in 10.0 mi East 3.5 mph - N/A   Clear
1:56 AM 45.0 °F - 28.0 °F 52% 29.81 in 10.0 mi Calm Calm - N/A   Clear
2:56 AM 41.0 °F 39.0 °F 26.1 °F 55% 29.81 in 10.0 mi ESE 3.5 mph - N/A   Clear
3:56 AM 39.9 °F 35.8 °F 26.1 °F 58% 29.81 in 10.0 mi SE 5.8 mph - N/A   Clear
4:56 AM 37.9 °F 34.4 °F 25.0 °F 60% 29.82 in 10.0 mi ESE 4.6 mph - N/A   Clear
5:56 AM 37.9 °F 32.7 °F 25.0 °F 60% 29.83 in 10.0 mi ESE 6.9 mph - N/A   Clear
6:56 AM 41.0 °F 39.0 °F 24.1 °F 51% 29.86 in 10.0 mi ESE 3.5 mph - N/A   Clear
7:56 AM 48.0 °F - 27.0 °F 44% 29.83 in 10.0 mi East 5.8 mph - N/A   Clear
8:56 AM 57.0 °F - 27.0 °F 32% 29.81 in 10.0 mi East 5.8 mph - N/A   Clear
9:56 AM 66.9 °F - 25.0 °F 21% 29.78 in 10.0 mi NNE 3.5 mph - N/A   Clear
10:40 AM 71.6 °F - 19.4 °F 14% 29.90 in 10.0 mi West 16.1 mph 24.2 mph N/A   Clear
10:56 AM 72.0 °F - 18.0 °F 13% 29.74 in 10.0 mi SW 13.8 mph 27.6 mph N/A   Clear
11:56 AM 73.9 °F - 17.1 °F 12% 29.72 in 10.0 mi WSW 18.4 mph 26.5 mph N/A   Clear
12:56 PM 73.9 °F - 18.0 °F 12% 29.70 in 10.0 mi WSW 20.7 mph 28.8 mph N/A   Clear
1:56 PM 75.9 °F - 18.0 °F 11% 29.67 in 10.0 mi West 23.0 mph 31.1 mph N/A   Clear
2:56 PM 75.9 °F - 19.0 °F 12% 29.64 in 10.0 mi West 19.6 mph 34.5 mph N/A   Clear
3:56 PM 73.0 °F - 21.9 °F 15% 29.65 in 10.0 mi SW 24.2 mph 31.1 mph N/A   Clear
4:56 PM 72.0 °F - 21.0 °F 15% 29.65 in 10.0 mi SW 26.5 mph 35.7 mph N/A   Clear
5:56 PM 70.0 °F - 21.0 °F 16% 29.64 in 10.0 mi SW 25.3 mph 34.5 mph N/A   Clear
6:56 PM 66.0 °F - 21.9 °F 19% 29.65 in 10.0 mi SSW 19.6 mph 31.1 mph N/A   Clear
7:56 PM 63.0 °F - 21.9 °F 21% 29.64 in 10.0 mi SSW 17.3 mph 26.5 mph N/A   Clear
8:56 PM 62.1 °F - 23.0 °F 22% 29.61 in 10.0 mi SSW 20.7 mph 28.8 mph N/A   Clear
9:56 PM 61.0 °F - 21.0 °F 21% 29.62 in 10.0 mi SW 16.1 mph 24.2 mph N/A   Clear
10:56 PM 59.0 °F - 21.0 °F 23% 29.62 in 10.0 mi SW 13.8 mph - N/A   Clear
11:56 PM 59.0 °F - 21.9 °F 24% 29.60 in 10.0 mi SW 11.5 mph - N/A   Clear